Time,TemperatureF,DewpointF,PressureIn,WindDirection,WindDirectionDegrees,WindSpeedMPH,WindSpeedGustMPH,Humidity,HourlyPrecipIn,Conditions,Clouds,dailyrainin,SoftwareType,DateUTC
2013-02-07 00:10:00,46.1,44.0,30.18,NNE,25,0.0,-999.0,91,-99.99,,,0.00,weatherlink.com 1.10,2013-02-07 05:10:00,
2013-02-07 00:25:00,46.0,44.0,30.19,NNE,18,0.0,-999.0,91,-99.99,,,0.00,weatherlink.com 1.10,2013-02-07 05:25:00,
2013-02-07 00:55:00,46.0,44.0,30.19,NNE,18,6.0,-999.0,91,-99.99,,,0.00,weatherlink.com 1.10,2013-02-07 05:55:00,
2013-02-07 01:10:00,46.0,44.0,30.21,North,11,2.0,-999.0,91,-99.99,,,0.00,weatherlink.com 1.10,2013-02-07 06:10:00,
2013-02-07 01:25:00,46.0,44.0,30.20,NNE,23,6.0,-999.0,92,-99.99,,,0.00,weatherlink.com 1.10,2013-02-07 06:25:00,
2013-02-07 01:40:00,46.1,44.0,30.20,NNE,32,0.0,-999.0,92,-99.99,,,0.00,weatherlink.com 1.10,2013-02-07 06:40:00,
2013-02-07 01:55:00,46.2,44.0,30.19,NNE,18,0.0,-999.0,91,-99.99,,,0.00,weatherlink.com 1.10,2013-02-07 06:55:00,
2013-02-07 02:10:00,46.5,44.0,30.18,NNE,17,6.0,-999.0,91,-99.99,,,0.00,weatherlink.com 1.10,2013-02-07 07:10:00,
2013-02-07 02:25:00,46.7,44.0,30.17,ENE,61,0.0,-999.0,91,-99.99,,,0.00,weatherlink.com 1.10,2013-02-07 07:25:00,
2013-02-07 02:40:00,46.7,44.0,30.17,NE,45,6.0,-999.0,91,-99.99,,,0.00,weatherlink.com 1.10,2013-02-07 07:40:00,
2013-02-07 02:55:00,47.0,44.0,30.17,NNE,25,7.0,-999.0,90,-99.99,,,0.00,weatherlink.com 1.10,2013-02-07 07:55:00,
2013-02-07 03:10:00,47.1,44.0,30.17,NE,48,6.0,-999.0,89,-99.99,,,0.00,weatherlink.com 1.10,2013-02-07 08:10:00,
2013-02-07 03:25:00,47.4,44.0,30.17,NNE,13,8.0,-999.0,88,-99.99,,,0.00,weatherlink.com 1.10,2013-02-07 08:25:00,
2013-02-07 03:40:00,47.6,44.0,30.17,NE,42,7.0,-999.0,88,-99.99,,,0.00,weatherlink.com 1.10,2013-02-07 08:40:00,
2013-02-07 03:55:00,47.7,44.0,30.18,North,4,7.0,-999.0,87,-99.99,,,0.00,weatherlink.com 1.10,2013-02-07 08:55:00,
2013-02-07 04:10:00,47.7,44.0,30.18,NE,47,0.0,-999.0,87,-99.99,,,0.00,weatherlink.com 1.10,2013-02-07 09:10:00,
2013-02-07 04:25:00,47.6,44.0,30.18,North,4,9.0,-999.0,87,-99.99,,,0.00,weatherlink.com 1.10,2013-02-07 09:25:00,
2013-02-07 04:41:00,47.6,44.0,30.18,NE,48,6.0,-999.0,87,-99.99,,,0.00,weatherlink.com 1.10,2013-02-07 09:41:00,
2013-02-07 04:55:00,47.6,44.0,30.18,NNE,23,1.0,-999.0,87,-99.99,,,0.00,weatherlink.com 1.10,2013-02-07 09:55:00,
2013-02-07 05:10:00,47.4,44.0,30.19,NE,34,6.0,-999.0,87,-99.99,,,0.00,weatherlink.com 1.10,2013-02-07 10:10:00,
2013-02-07 05:25:00,47.4,44.0,30.19,ENE,58,1.0,-999.0,87,-99.99,,,0.00,weatherlink.com 1.10,2013-02-07 10:25:00,
2013-02-07 05:40:00,47.4,44.0,30.18,NE,48,0.0,-999.0,87,-99.99,,,0.00,weatherlink.com 1.10,2013-02-07 10:40:00,
2013-02-07 05:55:00,47.6,44.0,30.19,NNE,20,8.0,-999.0,87,-99.99,,,0.00,weatherlink.com 1.10,2013-02-07 10:55:00,
2013-02-07 06:10:00,47.6,44.0,30.19,NE,41,0.0,-999.0,87,-99.99,,,0.00,weatherlink.com 1.10,2013-02-07 11:10:00,
2013-02-07 06:26:00,47.6,44.0,30.19,NE,41,2.0,-999.0,87,-99.99,,,0.00,weatherlink.com 1.10,2013-02-07 11:26:00,
2013-02-07 06:40:00,47.7,44.0,30.19,NNE,17,7.0,-999.0,87,-99.99,,,0.00,weatherlink.com 1.10,2013-02-07 11:40:00,
2013-02-07 06:56:00,47.9,44.0,30.19,NNE,32,0.0,-999.0,87,-99.99,,,0.00,weatherlink.com 1.10,2013-02-07 11:56:00,
2013-02-07 07:10:00,47.9,44.0,30.19,North,1,10.0,-999.0,87,-99.99,,,0.00,weatherlink.com 1.10,2013-02-07 12:10:00,
2013-02-07 07:26:00,48.0,44.0,30.20,NE,48,9.0,-999.0,87,-99.99,,,0.00,weatherlink.com 1.10,2013-02-07 12:26:00,
2013-02-07 07:40:00,48.2,44.0,30.20,NE,51,6.0,-999.0,86,-99.99,,,0.00,weatherlink.com 1.10,2013-02-07 12:40:00,
2013-02-07 07:56:00,48.8,45.0,30.20,NNE,20,0.0,-999.0,86,-99.99,,,0.00,weatherlink.com 1.10,2013-02-07 12:56:00,
2013-02-07 08:11:00,49.5,45.0,30.20,NE,35,4.0,-999.0,84,-99.99,,,0.00,weatherlink.com 1.10,2013-02-07 13:11:00,
2013-02-07 08:26:00,49.8,45.0,30.20,NNE,16,4.0,-999.0,83,-99.99,,,0.00,weatherlink.com 1.10,2013-02-07 13:26:00,
2013-02-07 08:40:00,51.0,46.0,30.20,NNE,30,4.0,-999.0,82,-99.99,,,0.00,weatherlink.com 1.10,2013-02-07 13:40:00,
2013-02-07 08:55:00,52.2,47.0,30.20,ENE,68,6.0,-999.0,81,-99.99,,,0.00,weatherlink.com 1.10,2013-02-07 13:55:00,
2013-02-07 09:11:00,53.2,47.0,30.19,NNE,28,13.0,-999.0,80,-99.99,,,0.00,weatherlink.com 1.10,2013-02-07 14:11:00,
2013-02-07 09:25:00,54.1,47.0,30.19,NNE,24,10.0,-999.0,78,-99.99,,,0.00,weatherlink.com 1.10,2013-02-07 14:25:00,
2013-02-07 09:41:00,54.7,48.0,30.20,NNE,28,10.0,-999.0,77,-99.99,,,0.00,weatherlink.com 1.10,2013-02-07 14:41:00,
2013-02-07 09:55:00,55.4,48.0,30.20,NE,38,7.0,-999.0,75,-99.99,,,0.00,weatherlink.com 1.10,2013-02-07 14:55:00,
2013-02-07 10:11:00,55.7,48.0,30.20,NE,41,4.0,-999.0,74,-99.99,,,0.00,weatherlink.com 1.10,2013-02-07 15:11:00,
2013-02-07 10:25:00,56.6,48.0,30.20,ENE,78,10.0,-999.0,73,-99.99,,,0.00,weatherlink.com 1.10,2013-02-07 15:25:00,
2013-02-07 10:40:00,56.5,48.0,30.21,NE,44,6.0,-999.0,73,-99.99,,,0.00,weatherlink.com 1.10,2013-02-07 15:40:00,
2013-02-07 10:56:00,56.9,49.0,30.20,ENE,76,6.0,-999.0,74,-99.99,,,0.00,weatherlink.com 1.10,2013-02-07 15:56:00,
2013-02-07 11:10:00,57.5,49.0,30.19,NE,44,2.0,-999.0,73,-99.99,,,0.00,weatherlink.com 1.10,2013-02-07 16:10:00,
2013-02-07 11:25:00,58.6,49.0,30.19,ENE,61,9.0,-999.0,71,-99.99,,,0.00,weatherlink.com 1.10,2013-02-07 16:25:00,
2013-02-07 11:40:00,59.0,50.0,30.18,NE,42,0.0,-999.0,71,-99.99,,,0.00,weatherlink.com 1.10,2013-02-07 16:40:00,
2013-02-07 11:55:00,59.0,50.0,30.17,ENE,73,7.0,-999.0,71,-99.99,,,0.00,weatherlink.com 1.10,2013-02-07 16:55:00,
2013-02-07 12:10:00,58.9,49.0,30.16,NE,35,4.0,-999.0,71,-99.99,,,0.00,weatherlink.com 1.10,2013-02-07 17:10:00,
2013-02-07 12:25:00,58.6,50.0,30.16,ENE,64,6.0,-999.0,72,-99.99,,,0.00,weatherlink.com 1.10,2013-02-07 17:25:00,
2013-02-07 12:40:00,58.7,50.0,30.14,ENE,64,9.0,-999.0,72,-99.99,,,0.00,weatherlink.com 1.10,2013-02-07 17:40:00,
2013-02-07 12:55:00,59.5,50.0,30.13,East,90,7.0,-999.0,71,-99.99,,,0.00,weatherlink.com 1.10,2013-02-07 17:55:00,
2013-02-07 13:10:00,59.0,50.0,30.12,NE,49,0.0,-999.0,72,-99.99,,,0.00,weatherlink.com 1.10,2013-02-07 18:10:00,
2013-02-07 13:25:00,59.0,50.0,30.11,NNE,20,9.0,-999.0,72,-99.99,,,0.00,weatherlink.com 1.10,2013-02-07 18:25:00,
2013-02-07 13:40:00,58.9,50.0,30.11,NE,56,6.0,-999.0,73,-99.99,,,0.00,weatherlink.com 1.10,2013-02-07 18:40:00,
2013-02-07 13:55:00,58.1,50.0,30.10,North,3,6.0,-999.0,75,-99.99,,,0.00,weatherlink.com 1.10,2013-02-07 18:55:00,
2013-02-07 14:11:00,57.0,50.0,30.10,NNE,27,2.0,-999.0,76,-99.99,,,0.00,weatherlink.com 1.10,2013-02-07 19:11:00,
2013-02-07 14:25:00,56.3,50.0,30.09,ENE,64,7.0,-999.0,78,-99.99,,,0.00,weatherlink.com 1.10,2013-02-07 19:25:00,
2013-02-07 14:41:00,55.6,51.0,30.09,NE,55,8.0,-999.0,83,-99.99,,,0.01,weatherlink.com 1.10,2013-02-07 19:41:00,
2013-02-07 14:55:00,54.4,51.0,30.09,NE,38,6.0,-999.0,88,-99.99,,,0.04,weatherlink.com 1.10,2013-02-07 19:55:00,
2013-02-07 15:11:00,53.8,51.0,30.09,NNE,20,6.0,-999.0,90,-99.99,,,0.06,weatherlink.com 1.10,2013-02-07 20:11:00,
2013-02-07 15:25:00,53.3,51.0,30.08,NE,49,4.0,-999.0,92,-99.99,,,0.07,weatherlink.com 1.10,2013-02-07 20:25:00,
2013-02-07 15:41:00,52.9,51.0,30.08,NE,42,2.0,-999.0,92,-99.99,,,0.08,weatherlink.com 1.10,2013-02-07 20:41:00,
2013-02-07 15:55:00,52.8,-99.9,30.07,NE,42,0.0,-999.0,-999,-99.99,,,0.08,weatherlink.com 1.10,2013-02-07 20:55:00,
2013-02-07 16:10:00,52.5,51.0,30.07,NE,34,6.0,-999.0,94,-99.99,,,0.09,weatherlink.com 1.10,2013-02-07 21:10:00,
2013-02-07 16:25:00,52.6,51.0,30.06,NE,47,1.0,-999.0,95,-99.99,,,0.11,weatherlink.com 1.10,2013-02-07 21:25:00,
2013-02-07 16:40:00,52.9,52.0,30.06,NE,42,9.0,-999.0,95,-99.99,,,0.13,weatherlink.com 1.10,2013-02-07 21:40:00,
2013-02-07 16:55:00,52.9,52.0,30.05,NE,51,0.0,-999.0,96,-99.99,,,0.15,weatherlink.com 1.10,2013-02-07 21:55:00,
2013-02-07 17:10:00,53.2,52.0,30.05,NE,55,7.0,-999.0,96,-99.99,,,0.18,weatherlink.com 1.10,2013-02-07 22:10:00,
2013-02-07 17:25:00,53.3,52.0,30.04,NE,49,6.0,-999.0,96,-99.99,,,0.20,weatherlink.com 1.10,2013-02-07 22:25:00,
2013-02-07 17:40:00,53.6,53.0,30.03,NE,44,2.0,-999.0,96,-99.99,,,0.22,weatherlink.com 1.10,2013-02-07 22:40:00,
2013-02-07 17:55:00,53.6,53.0,30.04,NNE,24,9.0,-999.0,97,-99.99,,,0.24,weatherlink.com 1.10,2013-02-07 22:55:00,
2013-02-07 18:10:00,53.6,53.0,30.03,NE,35,9.0,-999.0,97,-99.99,,,0.26,weatherlink.com 1.10,2013-02-07 23:10:00,
2013-02-07 18:25:00,53.3,53.0,30.03,NNE,20,7.0,-999.0,97,-99.99,,,0.29,weatherlink.com 1.10,2013-02-07 23:25:00,
2013-02-07 18:40:00,52.8,52.0,30.02,NE,52,8.0,-999.0,97,-99.99,,,0.31,weatherlink.com 1.10,2013-02-07 23:40:00,
2013-02-07 18:55:00,52.9,52.0,30.02,NE,55,6.0,-999.0,97,-99.99,,,0.34,weatherlink.com 1.10,2013-02-07 23:55:00,
2013-02-07 19:10:00,53.3,53.0,30.01,East,85,0.0,-999.0,97,-99.99,,,0.36,weatherlink.com 1.10,2013-02-08 00:10:00,
2013-02-07 19:25:00,54.5,54.0,30.00,ENE,65,7.0,-999.0,97,-99.99,,,0.38,weatherlink.com 1.10,2013-02-08 00:25:00,
2013-02-07 19:40:00,54.7,54.0,29.99,ENE,64,8.0,-999.0,97,-99.99,,,0.40,weatherlink.com 1.10,2013-02-08 00:40:00,
2013-02-07 19:55:00,54.8,54.0,29.98,East,90,8.0,-999.0,97,-99.99,,,0.45,weatherlink.com 1.10,2013-02-08 00:55:00,
2013-02-07 20:10:00,54.7,54.0,29.97,NE,41,10.0,-999.0,97,-99.99,,,0.50,weatherlink.com 1.10,2013-02-08 01:10:00,
2013-02-07 20:26:00,54.7,54.0,29.97,ENE,71,17.0,-999.0,97,-99.99,,,0.55,weatherlink.com 1.10,2013-02-08 01:26:00,
2013-02-07 20:40:00,54.7,54.0,29.95,ENE,71,9.0,-999.0,97,-99.99,,,0.57,weatherlink.com 1.10,2013-02-08 01:40:00,
2013-02-07 20:55:00,54.5,54.0,29.95,East,92,9.0,-999.0,97,-99.99,,,0.63,weatherlink.com 1.10,2013-02-08 01:55:00,
2013-02-07 21:10:00,54.7,54.0,29.95,ENE,71,11.0,-999.0,97,-99.99,,,0.70,weatherlink.com 1.10,2013-02-08 02:10:00,
2013-02-07 21:26:00,54.7,54.0,29.94,ENE,65,15.0,-999.0,97,-99.99,,,0.77,weatherlink.com 1.10,2013-02-08 02:26:00,
2013-02-07 21:40:00,55.0,54.0,29.92,ENE,75,14.0,-999.0,97,-99.99,,,0.83,weatherlink.com 1.10,2013-02-08 02:40:00,
2013-02-07 21:55:00,55.0,54.0,29.91,ENE,78,2.0,-999.0,97,-99.99,,,0.91,weatherlink.com 1.10,2013-02-08 02:55:00,
2013-02-07 22:11:00,55.3,55.0,29.91,ENE,68,9.0,-999.0,97,-99.99,,,0.98,weatherlink.com 1.10,2013-02-08 03:11:00,
2013-02-07 22:26:00,55.4,55.0,29.90,ENE,72,14.0,-999.0,97,-99.99,,,1.07,weatherlink.com 1.10,2013-02-08 03:26:00,
2013-02-07 22:40:00,55.6,55.0,29.88,ENE,72,14.0,-999.0,97,-99.99,,,1.16,weatherlink.com 1.10,2013-02-08 03:40:00,
2013-02-07 22:55:00,55.4,-99.9,29.87,East,79,4.0,-999.0,-999,-99.99,,,1.25,weatherlink.com 1.10,2013-02-08 03:55:00,
2013-02-07 23:11:00,55.6,55.0,29.85,East,83,9.0,-999.0,97,-99.99,,,1.35,weatherlink.com 1.10,2013-02-08 04:11:00,
2013-02-07 23:25:00,55.1,54.0,29.83,NE,45,16.0,-999.0,97,-99.99,,,1.43,weatherlink.com 1.10,2013-02-08 04:25:00,
2013-02-07 23:41:00,54.8,54.0,29.81,NE,42,9.0,-999.0,97,-99.99,,,1.51,weatherlink.com 1.10,2013-02-08 04:41:00,
2013-02-07 23:55:00,55.0,54.0,29.80,ENE,59,14.0,-999.0,97,-99.99,,,1.65,weatherlink.com 1.10,2013-02-08 04:55:00,